COSMOS 249 DEB *, 3758

Orbit data source: Space-Track

COSMOS 249 DEB *, 3758 is space debris in LEO originally from a launch on Sun, 20 Oct 1968 UTC launched from the Tyuratam Missile And Space Complex (TTMTR). Debris objects in space refer to the collection of defunct objects orbiting the Earth. Examples of debris include non-operational satellites, rocket bodies, and fragments generated from explosions, collisions, or faulty payload assembly.

Loading next visibility...
Identifier
3758, 1968-091AV
Orbit
LEO
Country
Flag of CISCIS
Related business
Manufacturer
Unknown
Mission
Spacecraft
Bus & Motor
Unknown
Mass
Unknown
Launch date (UTC)
1968-10-20 (58 years ago)
Launch vehicle
Unknown
Launch site
Tyuratam Missile And Space Complex (TTMTR)
Object type
Payload
Rocket body
Debris
Shape & HBR
Unknown shape, 0.1 m
Radar Cross Section
Medium (>0.1 m² and <1 m²)

Expand to show TLE details & history
Last TLE update: 3 days ago

TLE from 3 days ago
0 COSMOS 249 DEB *
1 03758U 68091AV  26171.94188285  .00000849  00000-0  10611-2 0  9991
2 03758  62.2599 115.4868 0778081 105.1394 263.6941 12.82520523614377
Epoch: 2026-06-20T22:36Z
TLE epoch observation values (Epoch: 2026-06-20T22:36:18.678Z)
Latitude
0.00003°
Longitude
-132.74029°
Altitude
1,444.238 km
Speed
7.089 km/s
True Right ascension
07h 41m 56s
True Declination
0° 00' 00"
Sunlit
Object was in daylight at epoch
Visualization orbit readout
Latitude
Unknown
Longitude
Unknown
Altitude
Unknown
Speed
Unknown
Apparent Right ascension
Unknown
Apparent Declination
Unknown
Sunlit
N/A
Visualization observer readout
Local Sidereal Time
14:45:55
Azimuth
Unknown
Elevation
Unknown
Doppler factor
Unknown
Orbital elements
Apogee altitude
1,930.131 km
Perigee altitude
730.566 km
Semi-major axis
7,708.485 km
Eccentricity
0.07781
Inclination
62.2599°
RAAN
115.4868°
Arg. of periapsis
105.1394°
True anomaly
254.95951°
Mean anomaly
263.6941°
Eccentric anomaly
259.31335°
Mean motion
3.20693 °/min
Orbital period
112.26 mins
BSTAR
0.0010611
Loading maneuver chart data...
Computing Atmospheric mass density...

Documentation

Showing up to 5 results
|